Weather History for Torrington, WY

Change the Weather History Date:

Tuesday, July 23, 2013

  Actual Average Record
Temperature  
Mean Temperature 75 °F 75 °F  
Max Temperature 89 °F 91 °F 103 °F (2005)
Min Temperature 60 °F 59 °F 50 °F (2004)
Degree Days  
Heating Degree Days 0 0  
Month to date heating degree days 0 0  
Since 1 June heating degree days 34 75  
Since 1 July heating degree days 0 0  
Cooling Degree Days 10 10  
Month to date cooling degree days 240 203  
Year to date cooling degree days 439 337  
Since 1 June cooling degree days 400 319  
Growing Degree Days 24 (Base 50)    
Moisture  
Dew Point 56 °F    
Average Humidity 59    
Maximum Humidity 84    
Minimum Humidity 34    
Precipitation  
Precipitation 0.00 in 0.08 in 1.01 in (2004)
Month to date precipitation 0.42 1.33  
Year to date precipitation 5.84 9.22  
Sea Level Pressure  
Sea Level Pressure 29.89 in    
Wind  
Wind Speed 9 mph (ESE)    
Max Wind Speed 21 mph    
Max Gust Speed 24 mph    
Visibility 10 miles    
Events      
T = Trace of Precipitation, MM = Missing Value Source: NWS Daily Summary

Daily Weather History Graph

Daily Weather History Graph

Search for Another Location

Airport:

Trip Planner

Search our weather history database for the weather conditions in past years. The results will help you decide how hot, cold, wet, or windy it might be!

Date:

Astronomy

Jul. 23, 2013 Rise Set
Actual Time 5:41 AM MDT 8:24 PM MDT
Civil Twilight 5:08 AM MDT 8:56 PM MDT
Nautical Twilight 4:28 AM MDT 9:37 PM MDT
Astronomical Twilight 3:41 AM MDT 10:23 PM MDT
Moon 8:51 PM MDT (7/23) 6:55 AM MDT (7/23)
Length of Visible Light 15h 47m
Length of Day
14h 42m
Full, 99% of the Moon is Illuminated
Jul 23
Full
Jul 29
Last Quarter
Aug 6
New
Aug 14
First Quarter
Aug 20
Full

Hourly Weather History & Observations

Time (MDT) Temp. Heat Index Dew Point Humidity Pressure Visibility Wind Dir Wind Speed Gust Speed Precip Events Conditions
12:53 AM 71.1 °F - 57.0 °F 61% 29.77 in 10.0 mi East 18.4 mph 28.8 mph N/A   Clear
1:53 AM 66.9 °F - 57.0 °F 70% 29.77 in 10.0 mi ESE 12.7 mph - N/A   Clear
2:53 AM 66.0 °F - 55.9 °F 70% 29.76 in 10.0 mi ESE 13.8 mph - N/A   Clear
3:53 AM 64.0 °F - 55.0 °F 73% 29.80 in 10.0 mi East 8.1 mph - N/A   Clear
4:53 AM 60.1 °F - 55.0 °F 83% 29.82 in 10.0 mi East 10.4 mph - N/A   Clear
5:53 AM 62.1 °F - 54.0 °F 75% 29.87 in 10.0 mi East 11.5 mph - N/A   Clear
6:53 AM 64.0 °F - 54.0 °F 70% 29.90 in 10.0 mi East 10.4 mph - N/A   Clear
7:53 AM 66.0 °F - 55.0 °F 68% 29.92 in 10.0 mi SE 12.7 mph - N/A   Clear
8:53 AM 69.1 °F - 55.9 °F 63% 29.94 in 10.0 mi SE 9.2 mph - N/A   Clear
9:53 AM 73.9 °F - 55.9 °F 53% 29.94 in 10.0 mi SSE 11.5 mph 16.1 mph N/A   Clear
10:53 AM 78.1 °F - 55.9 °F 46% 29.94 in 10.0 mi SSE 10.4 mph 18.4 mph N/A   Clear
11:53 AM 80.1 °F 80.4 °F 57.0 °F 45% 29.93 in 10.0 mi SE 8.1 mph - N/A   Clear
12:53 PM 81.0 °F 80.8 °F 55.9 °F 42% 29.93 in 10.0 mi Variable 6.9 mph - N/A   Clear
1:53 PM 84.9 °F 83.7 °F 55.9 °F 37% 29.91 in 10.0 mi SE 8.1 mph - N/A   Clear
2:53 PM 87.1 °F 85.9 °F 57.0 °F 36% 29.89 in 10.0 mi SSE 6.9 mph - N/A   Clear
3:53 PM 88.0 °F 86.7 °F 57.0 °F 35% 29.88 in 10.0 mi East 5.8 mph - N/A   Clear
4:53 PM 88.0 °F 86.5 °F 55.9 °F 34% 29.88 in 10.0 mi Variable 5.8 mph - N/A   Clear
5:53 PM 84.0 °F 83.0 °F 55.9 °F 38% 29.89 in 10.0 mi SSE 3.5 mph - N/A   Clear
6:53 PM 84.9 °F 83.6 °F 55.0 °F 36% 29.88 in 10.0 mi SE 4.6 mph - N/A   Clear
7:53 PM 82.9 °F 82.1 °F 55.9 °F 39% 29.90 in 10.0 mi Calm Calm - N/A   Clear
8:53 PM 75.9 °F - 54.0 °F 46% 29.94 in 10.0 mi ENE 19.6 mph 24.2 mph N/A   Clear
9:53 PM 72.0 °F - 55.9 °F 57% 29.97 in 10.0 mi East 12.7 mph - N/A   Clear
10:53 PM 70.0 °F - 57.0 °F 63% 29.97 in 10.0 mi East 13.8 mph 20.7 mph N/A   Clear
11:53 PM 68.0 °F - 59.0 °F 73% 29.98 in 10.0 mi East 11.5 mph - N/A   Clear